Location: Sangrey
(48.2845°N, 109.8206°W)
Time: 08:53:10
(UTC+00:00)

N. Korean satellite - Pass Details

Date: 30 January 2022
Orbit: 438 x 478 km, 97.3° (Epoch: 21 May)

Event Time Altitude Azimuth Distance (km) Brightness Sun altitude
Rises 00:21:31 0° 194° (SSW) 2,521 10.8 -1.9°
Reaches altitude 10° 00:23:47 10° 207° (SSW) 1,662 10.2 -2.3°
Maximum altitude 00:26:50 26° 266° (W) 998 9.2 -2.8°
Drops below altitude 10° 00:29:58 10° 324° (NW) 1,708 9.5 -3.2°
Enters shadow 00:53:13 -48° 4° (N) 10,130 13.1 -6.8°
Exits shadow 00:54:58 -51° 6° (N) 10,593 13.2 -7.1°
Sets 11:53:42 0° 159° (SSE) 2,588 10.4 -29.4°
